Pagina principale
METAR-TAF:

METAR-TAF

Aeroporti :

Alpnach, Svizzera

latitudine: 46-56-19N, longitudine: 8-17-03E, altezza: 440 m

Osservazione

Il bollettino è stato emesso 30 minuti fa, alle 19:50 UTC
Vento 2 kt da direzioni variabili
Temperature 5°C
Umidità 81%
Pressione 1018 hPa
Visibilità 10 km o più

METAR: LSMA 161950Z AUTO VRB02KT 9999NDV NCD 05/02 Q1018 RMK

Ora: 21:20 (20:20 UTC)


TAF: mancante

Osservazioni e previsioni meteorologiche di più di 4000 aeroporti (messaggi METAR e TAF).

Le stazioni disponibili sono rappresentate dai dischi gialli e rossi sulla carta.

Puntare il mouse per vedere il nome della stazione.

Clicca sopra per visualizzare le osservazioni e previsioni meteorologiche.

Per cambiare la mappa : fare clic sui pulsanti verdi con una croce nera per ingrandire, il pulsante verde con un trattino per diminuire, o sulla freccia verde per le mappe adiacenti.


METAR-TAF: